Location: Malanoce
(44.2500°N, 7.4667°E)
Time: 22:28:41
(UTC+00:00)

Meteor 2-1 Rocket - Pass Details

Date: 17 November 2025
Orbit: 822 x 912 km, 81.3° (Epoch: 13 December)

Event Time Altitude Azimuth Distance (km) Brightness Sun altitude
Rises 17:49:13 0° 173° (S) 3,493 7.4 -19.2°
Reaches altitude 10° 17:51:42 10° 169° (S) 2,568 6.7 -19.7°
Maximum altitude 17:57:22 53° 94° (E) 1,105 4.4 -20.7°
Enters shadow 18:02:24 14° 21° (NNE) 2,342 6.2 -21.6°
